Погода в Черниговке

Украина / Запорожская область     47°11′32″N   36°13′02″E
темп.,
°C
ветер,
м/с
пор.,
м/с
влажн.,
%
обл.,
%
осадки,
мм/ч
давл.,
гПа
погр.,
м
14 июня, пн
пн1400:00+16юв359230 0.0 101074
03:00+16юв4895100 0.0 1010141
06:00+16ююв479324 0.0 1010200
09:00+22ююв566961 0.0 1011911
12:00+24ююв555490 0.0 10121478
15:00+25юв34495 0.0 10121514
18:00+24юв34515 0.0 10121509
21:00+19всв336495 0.0 101223
15 июня, вт
вт1500:00+18св45664 0.0 101253
03:00+17св48750 0.0 1011115
06:00+18св48790 0.0 1010150
09:00+23всв5860100 0.0 1010540
12:00+23юв7861100 0.3 1010925
15:00+21в5874100 0.4 1009503
18:00+19в2489100 3.1 1009138
21:00+17юв499469 7.2 1009185
16 июня, ср
ср1600:00+17юв35939 4.4 100978
03:00+16юв119374 4.4 100911
06:00+16ююз2392100 0.0 101087
09:00+19зсз2278100 0.0 1010248
12:00+24всв345695 0.0 10101175
15:00+23ююв126795 4.9 1009481
18:00+22з237348 4.2 1008627
21:00+17зсз22967 4.7 100919
17 июня, чт
чт1700:00+16ю2396100 0.0 100939
03:00+15юз119897 0.0 101012
06:00+17св2395100 0.0 1010103
09:00+20вюв3587100 0.0 1012542
12:00+21вюв3382100 0.3 1013470
15:00+19в3494100 3.6 1014148
18:00+21ююв2378100 2.1 1015435
21:00+18юв2286100 2.1 101612
18 июня, пт
пт1800:00+16вюв3389100 0.0 101637
03:00+16вюв3491100 0.0 101656
06:00+17в379290 0.0 1017212
09:00+21вюв677343 0.0 10171046
12:00+24юв6763100 0.3 10171493
15:00+25вюв66568 0.4 10171618
18:00+23вюв67670 0.0 10171257
21:00+18в612920 0.1 1019456